Theta_e
323 323 323 323 324 324 323 325 327 328 329 333 336 336 338 343 339 339 349 351 345 346 349 347 346 348 350 348 344 342 343 343 345 345 345 344 343 345 349 352 352 350 348 347 347 347 348 348 347 348 349 350 350 350 351 350 350 351 351 351 351 351 351 351 351 351 351 351 353 353 353 353 353 351 350 350 351 352 351 351 351 351 351 351 351 352 352
323 323 323 323 323 322 322 325 328 328 327 328 330 332 335 340 339 341 347 348 347 349 349 347 347 347 346 343 342 342 342 342 343 344 345 344 344 344 345 348 351 352 351 349 347 346 348 349 348 347 347 350 351 351 352 352 351 350 351 351 351 351 351 351 351 351 351 351 353 354 354 353 353 353 352 351 352 353 352 351 350 350 351 351 350 351 351
322 322 323 322 321 323 320 321 324 325 326 327 327 328 330 334 337 340 340 342 349 351 347 347 347 345 344 343 341 342 342 343 344 344 343 344 344 346 346 346 349 351 352 351 348 346 347 348 349 347 347 349 350 350 351 351 352 352 352 351 351 350 351 351 351 351 351 352 354 355 354 354 353 353 353 352 353 354 353 352 351 351 351 351 350 351 351
322 322 322 322 322 322 320 321 326 327 325 325 326 330 333 334 337 339 337 340 350 352 347 346 347 345 345 343 342 343 343 343 343 343 343 344 345 347 349 349 349 350 352 351 349 348 347 348 348 347 347 348 348 348 350 351 351 350 352 353 353 353 352 352 353 354 354 354 354 354 354 353 353 353 354 353 353 353 353 353 353 353 352 351 351 351 351
322 322 322 323 324 323 323 326 329 329 329 330 328 331 337 338 337 336 336 344 354 352 347 347 347 345 345 344 342 343 343 342 342 343 344 346 347 348 348 349 349 349 350 350 349 349 348 348 348 347 347 347 348 349 349 350 350 348 350 352 354 355 356 355 355 355 355 355 356 356 354 353 353 354 354 353 353 353 353 353 352 353 353 353 352 352 352
323 324 325 324 323 322 327 334 334 330 331 333 331 330 333 338 340 340 341 347 352 349 347 348 346 344 344 344 342 342 343 343 344 345 346 346 347 348 347 347 348 348 348 349 348 348 348 348 348 348 347 346 348 349 348 349 351 351 350 350 352 353 355 356 355 352 350 351 352 353 352 351 353 353 352 352 354 355 354 353 351 351 351 352 353 354 353
324 326 326 323 322 326 332 335 334 332 330 330 331 331 333 339 347 351 350 348 347 347 346 345 344 342 342 343 342 343 343 344 345 346 346 346 346 347 346 346 346 347 347 347 347 348 348 348 348 348 348 347 348 349 350 350 353 354 352 351 350 349 352 355 356 353 347 346 348 350 350 350 351 351 351 354 356 356 356 355 352 348 346 348 350 352 353
325 324 323 323 324 329 334 333 332 332 331 330 331 335 338 341 345 350 349 346 346 346 343 343 343 342 342 342 343 343 343 343 343 344 345 345 345 346 346 345 345 346 346 345 346 347 348 348 348 347 348 349 349 349 351 352 353 353 350 349 351 350 350 353 356 352 346 344 349 351 350 349 349 349 351 355 356 356 356 355 353 349 347 346 346 347 350
324 321 322 325 325 327 334 337 333 331 331 332 334 338 340 341 341 344 346 346 345 344 343 343 342 341 342 344 343 343 342 342 342 342 342 343 343 344 344 344 344 344 345 345 345 346 347 349 349 348 347 347 347 347 349 350 350 350 347 349 353 354 352 352 352 348 343 344 349 352 352 352 353 351 351 353 355 355 355 355 353 350 349 348 347 348 349
327 323 322 324 323 324 332 336 332 329 329 328 332 339 341 340 339 342 345 345 344 342 342 342 341 342 346 348 346 343 342 342 342 341 341 342 342 343 343 343 343 344 344 344 344 346 346 347 350 351 349 348 347 349 350 349 348 348 347 349 352 352 349 347 347 345 345 348 352 353 353 354 355 353 352 353 353 353 354 355 353 350 349 349 350 351 351
328 323 322 322 321 325 336 337 330 328 328 327 330 337 340 341 338 340 344 344 343 342 341 339 341 344 348 349 346 343 342 342 342 342 342 342 342 342 342 343 342 343 343 343 344 345 344 344 348 352 352 351 351 351 351 349 345 343 341 344 348 350 348 347 346 347 349 351 353 354 354 355 355 354 353 353 352 351 353 355 354 352 351 351 351 352 352
325 323 322 321 321 329 340 337 329 328 328 329 331 334 338 341 336 337 341 342 342 343 340 339 342 346 348 347 344 342 342 342 341 342 342 342 342 342 341 342 342 342 343 343 343 343 342 342 346 351 353 353 350 350 351 351 349 348 347 348 349 351 351 349 349 351 353 354 354 355 355 354 353 353 353 353 353 353 354 353 352 351 351 351 352 351 351
324 324 322 320 324 335 341 335 330 328 327 331 334 335 340 340 334 335 338 339 341 342 340 341 343 343 343 343 342 342 342 341 341 341 341 340 340 340 340 341 342 342 342 343 343 342 342 342 344 349 353 353 351 351 352 353 352 351 351 352 352 350 351 351 350 351 352 352 353 354 354 354 354 353 353 351 349 348 346 347 349 348 347 347 347 347 346
325 326 324 321 327 338 337 330 329 330 333 338 339 338 338 335 334 337 338 338 342 343 341 342 343 341 341 342 341 341 341 341 341 340 340 339 339 339 340 340 341 341 342 342 342 341 341 342 342 346 351 353 353 353 353 353 352 350 350 352 351 349 350 351 350 348 349 350 352 351 350 348 346 345 345 343 342 338 336 338 342 342 340 339 339 339 339
327 326 323 323 330 336 332 331 336 338 338 340 339 334 334 334 334 337 338 339 342 342 342 342 341 340 341 341 340 340 340 340 340 339 339 339 338 338 338 338 339 340 340 340 340 339 339 340 341 343 346 348 349 349 349 349 348 346 346 347 348 348 349 349 348 347 348 349 348 345 342 339 337 339 340 341 341 338 336 337 340 339 336 335 336 336 335
327 326 328 331 335 335 330 333 339 339 337 336 332 330 334 336 334 335 337 337 337 339 341 341 340 340 341 340 340 340 339 339 338 338 338 338 337 337 337 336 337 338 337 338 338 338 337 338 340 341 342 344 344 345 345 345 345 345 346 346 346 346 346 346 346 345 345 345 343 341 340 339 339 340 341 341 340 339 339 340 340 339 337 336 336 335 333
329 331 335 334 332 330 329 331 335 334 333 332 331 331 333 334 334 335 336 334 335 340 342 340 339 340 340 340 340 339 338 337 337 337 337 337 336 336 336 336 336 336 336 335 336 336 337 338 339 340 340 341 342 342 342 343 344 344 344 344 344 344 343 343 342 342 342 341 340 339 339 340 340 339 338 338 338 338 338 338 337 337 335 333 331 329 327
330 328 332 332 329 329 330 330 331 331 331 330 330 332 334 335 335 335 336 335 336 339 340 340 339 339 339 339 339 338 338 337 336 336 335 334 334 334 334 335 335 335 334 334 334 334 335 337 338 340 340 340 341 341 341 341 341 342 342 342 341 340 340 339 338 338 338 337 336 335 334 334 334 334 334 335 334 334 334 334 333 332 327 322 321 322 321
329 329 333 334 331 330 331 331 332 334 335 333 333 333 334 337 337 336 337 337 336 337 339 340 338 338 338 338 337 337 337 336 335 335 333 333 333 333 332 333 334 334 335 334 332 330 331 334 336 338 338 339 338 338 339 339 339 338 337 336 336 336 336 336 336 336 336 335 334 334 334 333 333 332 332 332 331 331 330 328 326 323 319 316 318 320 320
332 333 333 332 331 331 332 331 332 335 336 336 336 335 335 337 338 337 337 337 336 337 339 339 338 337 337 336 336 337 336 335 335 334 332 331 331 331 331 332 333 333 333 332 329 327 327 331 334 335 336 336 335 334 334 333 334 334 333 331 332 333 333 333 333 332 332 333 333 333 333 334 334 334 334 333 332 332 330 325 321 321 320 318 318 316 315
332 335 334 332 334 336 334 332 333 334 334 334 334 334 335 337 338 338 337 337 338 338 338 338 337 336 335 335 336 336 334 333 333 332 330 329 329 328 329 329 329 329 329 328 326 324 323 324 327 327 328 329 328 328 327 325 325 326 326 327 328 328 328 327 326 325 324 325 326 326 327 329 331 332 332 330 328 326 324 321 318 317 316 315 314 312 311
336 340 337 333 335 338 335 332 333 333 332 332 332 333 336 339 339 339 338 338 340 340 338 337 336 335 335 335 335 333 331 331 331 329 328 327 327 327 328 328 326 324 324 324 324 323 323 323 324 323 323 323 322 321 322 322 321 321 320 319 319 320 321 320 320 319 317 315 316 317 318 319 320 321 320 318 316 315 314 313 313 313 313 312 312 312 312
338 338 332 329 333 337 334 333 335 334 333 334 334 335 338 340 339 339 339 339 340 339 337 336 335 334 334 334 333 331 330 329 329 328 327 327 328 329 329 328 326 324 325 326 326 325 326 326 326 326 326 325 323 321 321 323 324 323 320 316 313 313 313 313 313 313 312 312 312 313 313 314 314 314 314 314 314 314 314 314 314 314 315 315 315 314 314
335 333 331 330 334 336 335 335 336 332 330 334 338 338 339 339 338 339 339 339 339 337 335 334 334 334 334 333 331 330 329 329 329 328 327 327 327 327 326 327 327 327 328 330 329 328 328 328 327 327 327 325 324 323 323 322 321 320 318 315 314 315 315 315 315 315 315 315 315 315 316 316 316 316 316 316 316 316 316 317 317 316 315 315 314 315 315
332 332 332 331 333 335 334 334 333 330 328 331 334 335 336 337 337 337 338 339 337 335 334 333 334 333 333 331 330 329 329 328 328 328 327 326 326 326 326 327 328 328 329 329 329 329 330 329 329 329 328 327 326 325 324 323 321 320 320 321 321 322 322 322 322 321 321 321 321 321 320 320 320 321 321 320 319 320 320 321 320 318 317 316 317 318 318
330 330 330 331 332 333 332 332 333 333 331 331 330 331 333 335 335 336 338 338 336 334 333 333 332 332 332 331 329 328 328 327 327 328 327 326 326 327 327 327 328 328 328 328 328 329 329 329 329 328 328 329 329 328 327 325 324 324 326 327 327 328 327 327 326 325 325 326 327 327 326 325 326 326 326 325 324 324 323 323 321 320 320 321 321 322 321
329 329 329 330 331 331 331 331 331 330 331 331 331 331 332 334 334 335 336 335 333 332 332 331 331 331 331 330 329 327 326 325 325 325 325 325 325 325 326 326 327 328 328 328 328 328 328 327 327 325 325 325 326 326 326 325 326 327 328 327 327 328 328 328 327 326 326 327 328 328 327 327 327 326 326 326 326 326 325 324 322 321 322 323 323 323 322
329 329 329 329 330 332 331 326 322 325 330 332 331 332 332 333 333 333 333 332 331 331 331 330 330 330 330 329 328 326 323 322 323 324 326 327 327 327 327 327 328 328 328 329 328 328 327 326 326 326 326 325 324 322 322 322 324 326 325 325 325 325 326 327 326 323 323 325 326 325 325 325 325 324 323 323 324 325 325 323 322 322 324 325 325 323 322
329 330 329 328 329 331 328 321 320 326 331 331 331 331 332 331 331 330 329 329 330 330 329 328 328 329 329 328 327 324 322 324 327 328 328 329 329 329 329 329 328 329 329 329 328 328 327 327 327 327 327 327 326 325 325 326 326 325 324 323 322 321 320 319 316 314 316 321 323 323 323 324 325 324 323 322 323 323 322 321 321 321 323 325 326 324 321
331 330 329 329 329 328 325 324 327 330 331 330 330 330 330 329 328 327 326 325 326 327 326 326 327 327 327 326 325 322 323 326 329 328 328 329 329 329 329 329 329 329 328 328 327 328 327 326 326 325 324 325 325 324 325 326 326 326 324 320 315 314 316 317 316 315 317 320 321 322 322 321 321 321 321 321 321 321 320 319 319 319 320 322 322 320 318
330 329 329 329 329 328 326 327 330 331 330 330 330 329 329 327 326 325 324 323 323 324 324 324 326 326 326 326 326 325 326 327 327 327 327 329 329 328 328 328 328 328 327 327 327 327 326 326 325 323 322 323 323 322 321 321 321 321 318 311 309 313 319 320 320 319 318 318 318 319 320 319 319 320 320 319 318 318 317 318 318 318 319 319 318 317 316
329 330 330 330 330 330 329 330 330 330 329 329 329 329 329 327 325 324 324 323 323 324 324 323 324 325 325 326 327 327 327 328 328 328 328 329 329 329 328 328 328 327 325 325 326 324 322 321 322 322 321 321 320 320 319 318 317 315 310 306 308 316 320 320 320 320 318 316 316 317 318 319 320 319 317 315 315 316 317 317 317 317 317 317 317 317 316
329 330 330 330 331 331 330 330 330 329 329 329 329 328 329 327 325 325 324 324 324 324 323 323 324 324 324 325 326 327 327 327 328 328 328 327 327 326 325 326 326 324 321 323 324 322 318 315 316 318 319 317 316 318 319 318 317 316 311 308 312 317 319 319 320 320 318 316 315 316 318 318 316 314 313 313 315 316 317 316 317 317 317 318 319 319 317
329 329 329 329 331 331 330 329 329 329 329 328 327 328 328 327 326 325 324 323 323 323 322 322 323 324 323 323 323 325 326 327 327 327 326 325 325 322 320 320 319 316 315 319 320 317 313 310 308 309 310 311 313 318 320 320 319 318 316 315 316 318 319 319 319 319 317 315 313 313 314 313 312 312 314 316 316 316 316 316 316 316 316 317 318 318 317
329 328 328 328 330 331 330 329 329 328 327 326 326 326 327 327 326 324 322 321 322 322 322 322 323 323 322 321 322 324 326 326 326 324 323 324 324 321 316 315 314 312 311 314 314 310 307 305 304 303 303 306 309 314 318 319 318 317 316 316 315 316 316 317 318 317 315 313 312 312 313 314 314 315 316 316 316 315 315 316 315 315 315 315 316 316 315
330 329 328 328 328 330 330 329 328 328 326 324 324 325 326 326 325 323 320 320 321 321 321 321 322 321 319 319 320 321 321 321 322 322 322 323 324 320 314 312 312 310 309 310 309 306 305 307 305 302 302 304 306 308 311 313 314 314 315 316 316 314 314 315 315 313 312 313 314 315 316 316 316 315 316 316 315 315 315 315 314 314 314 315 315 315 315
332 330 329 327 328 330 330 329 329 328 326 323 323 324 324 324 324 323 321 319 319 318 318 319 321 321 320 318 317 316 315 315 317 319 322 323 321 316 312 310 308 307 306 305 304 305 308 309 306 302 302 303 304 304 306 310 313 315 317 318 318 316 315 315 314 312 312 315 317 317 316 316 315 315 315 315 314 314 314 314 313 313 314 314 314 314 314
333 332 330 327 327 330 330 329 329 329 327 323 322 322 322 322 323 323 321 319 317 316 316 318 320 321 320 318 317 319 320 318 314 314 316 317 313 309 308 308 306 305 305 303 302 304 307 307 304 303 302 301 303 307 311 314 316 317 317 317 317 317 316 315 313 311 310 313 315 315 314 315 314 313 313 313 313 313 313 312 312 313 313 313 313 312 312
331 332 330 327 327 328 329 329 328 329 328 325 322 321 320 320 321 321 321 320 319 318 317 318 318 317 317 318 321 323 323 319 314 311 312 311 308 308 310 312 311 310 307 304 301 302 304 304 303 303 302 302 305 311 314 315 315 315 315 315 316 316 315 315 315 312 311 312 314 313 312 313 313 312 312 313 313 312 312 311 312 312 312 312 311 311 311
327 330 330 329 328 328 329 329 328 329 328 326 323 320 320 320 319 320 320 321 322 322 322 322 321 320 321 323 324 323 319 315 312 311 311 311 312 313 315 317 317 313 307 303 302 302 303 304 303 302 301 302 305 308 311 312 314 315 315 314 314 314 315 315 315 314 313 314 314 313 312 312 312 312 312 312 312 311 311 311 311 311 311 311 311 310 310
326 329 330 329 328 328 328 329 329 329 328 327 324 321 319 320 320 319 319 321 323 324 325 325 324 324 324 324 323 320 316 314 314 314 314 314 314 314 315 317 316 310 304 302 302 302 303 304 303 302 302 302 303 306 310 313 315 316 316 315 314 314 314 314 314 313 313 313 313 312 312 312 312 312 311 311 311 311 311 310 310 310 310 310 309 309 309
327 329 329 328 328 328 328 328 329 329 329 327 325 321 319 320 320 319 320 322 324 325 325 325 325 324 324 323 319 316 314 314 315 314 311 309 308 308 308 309 308 304 302 302 302 302 303 303 302 302 302 302 304 308 311 312 313 315 315 315 314 313 313 314 314 313 312 312 312 312 311 311 311 311 311 310 310 310 310 309 309 309 309 309 309 309 308
327 328 327 326 327 329 329 328 329 330 329 328 326 323 320 320 321 321 322 324 325 325 325 325 324 323 322 318 315 313 314 315 314 311 307 306 307 308 308 307 304 301 301 302 302 301 302 302 302 303 302 302 305 310 311 311 312 313 313 313 313 313 312 313 313 312 311 311 311 311 310 310 310 310 310 309 309 308 308 308 308 308 308 308 308 308 307
327 327 327 327 328 330 330 329 329 329 329 329 328 326 324 324 325 326 326 326 325 325 325 324 323 321 318 314 312 312 313 313 311 307 305 306 309 311 312 312 307 302 301 302 302 301 302 302 302 303 302 302 306 310 311 311 312 312 311 311 312 312 311 311 312 311 310 310 310 310 309 309 309 309 309 308 308 308 308 307 307 307 307 307 307 306 306
327 327 328 328 329 330 330 329 328 329 329 329 329 329 329 328 329 329 328 326 325 325 324 323 322 319 315 313 312 312 312 311 308 305 304 306 307 308 310 311 307 303 302 303 304 305 305 304 302 301 302 304 307 310 310 311 312 311 311 312 312 311 310 310 310 310 309 310 309 309 309 308 308 308 308 307 307 307 306 305 305 306 306 305 305 305 305
328 328 329 329 331 331 330 328 327 329 329 329 329 329 330 330 329 328 327 326 325 325 324 322 319 317 315 313 313 314 314 313 312 310 310 310 309 308 307 305 304 303 303 303 305 308 308 305 302 301 302 304 307 308 309 310 310 310 310 310 310 310 310 310 309 309 308 308 308 308 308 308 308 308 307 306 305 305 305 305 305 305 304 303 303 304 304
328 328 328 330 331 330 329 328 329 329 329 329 329 330 330 329 329 327 326 325 324 323 322 320 318 318 316 314 313 314 316 316 316 316 316 315 312 310 307 303 302 303 303 303 306 308 307 303 301 302 302 303 305 307 308 309 310 310 309 309 309 309 309 309 309 308 307 306 306 306 307 307 307 306 306 305 305 305 304 304 304 304 304 303 303 303 303
327 326 327 328 329 328 328 329 330 329 329 329 329 329 329 329 328 327 326 325 324 323 322 321 320 320 319 316 314 315 316 316 316 316 315 313 312 311 309 304 302 302 303 303 305 306 305 302 301 302 302 303 304 306 307 309 310 309 309 309 309 308 308 308 308 308 307 306 306 307 307 306 305 305 305 305 305 304 304 304 304 303 303 303 303 303 303
326 327 329 329 328 327 328 330 330 329 329 329 329 329 329 328 327 326 326 325 324 323 322 322 322 322 320 318 316 317 317 317 316 316 315 313 311 310 308 305 303 302 302 302 303 304 303 302 302 302 302 303 305 307 308 309 309 308 308 308 308 308 308 308 308 308 307 306 306 307 306 306 305 305 305 305 304 304 303 303 303 303 302 302 302 303 303
327 328 328 328 328 327 329 329 329 328 328 328 328 328 328 327 326 327 327 326 324 323 322 323 323 322 320 319 318 318 318 317 316 317 317 316 312 308 305 304 303 302 301 302 302 302 302 302 302 302 302 304 305 307 308 308 308 308 308 308 308 308 307 307 307 307 306 305 305 305 305 305 305 305 304 304 304 304 303 303 303 302 302 302 302 302 302
328 327 326 326 326 327 328 329 329 328 328 328 328 328 327 327 326 327 327 325 324 324 324 324 324 322 320 319 320 319 318 317 317 317 318 318 315 309 304 302 302 302 302 302 302 302 302 302 302 302 302 304 306 308 308 308 308 307 307 307 307 307 306 304 304 305 305 305 305 305 305 304 305 305 304 304 304 303 303 303 303 302 302 302 302 302 302
328 328 327 328 328 328 328 329 329 329 328 328 328 328 328 328 327 327 326 326 325 325 325 324 323 322 320 320 321 320 318 317 317 317 317 318 316 310 303 301 302 302 302 301 302 302 302 302 302 302 302 304 307 308 309 308 307 307 306 306 306 307 306 304 304 305 306 305 305 305 304 304 304 304 304 304 304 303 303 303 303 303 302 302 302 302 302
Wind_Speed
6 7 9 11 10 8 6 2 4 3 2 7 7 6 7 8 5 4 6 8 5 5 6 7 5 4 2 1 4 5 7 9 8 6 9 18 24 19 13 13 15 17 22 29 27 20 18 25 31 28 24 27 30 29 30 31 32 30 26 27 28 26 26 26 26 25 25 25 23 20 19 18 18 19 19 16 14 15 15 16 16 17 16 15 15 17 16
6 8 10 12 9 7 6 3 6 6 5 6 6 6 7 9 8 7 8 9 4 1 2 2 4 6 6 7 7 8 9 9 9 8 9 14 20 20 18 15 14 15 18 23 27 24 18 19 28 32 28 26 28 27 24 23 27 29 28 28 29 28 28 28 27 26 25 25 23 20 20 20 18 18 20 19 15 13 13 14 15 17 18 17 15 15 15
5 7 9 9 8 8 10 9 6 5 6 5 5 5 4 4 4 4 5 7 3 1 3 8 9 8 8 8 7 6 5 4 5 7 9 12 13 13 15 16 14 13 15 19 24 26 23 20 24 31 32 28 27 28 24 20 21 26 27 28 30 30 30 28 26 26 25 24 24 23 22 22 20 18 20 21 20 17 15 14 15 16 16 17 17 16 15
4 6 7 9 8 8 9 6 2 4 3 1 1 1 2 2 2 3 3 2 2 2 5 10 9 8 8 7 5 2 1 3 2 5 9 11 11 12 14 15 13 11 13 17 20 24 26 24 23 27 30 28 26 28 28 24 24 26 27 27 27 27 29 30 27 25 26 25 25 25 25 24 22 21 21 21 21 19 18 17 17 17 16 17 18 17 16
3 6 8 8 7 6 5 3 3 6 5 4 4 5 5 4 3 3 1 3 4 4 7 8 5 5 5 3 2 1 2 3 1 3 6 8 10 11 13 13 12 12 14 15 18 21 24 25 24 24 25 26 26 28 28 25 26 29 30 29 26 20 21 31 32 25 22 22 22 23 24 24 23 23 22 21 19 19 19 19 19 19 18 18 18 18 17
3 7 7 7 6 4 4 4 2 4 5 5 4 5 6 5 4 4 3 2 3 5 6 7 5 4 3 1 1 1 1 1 1 1 1 4 6 10 13 14 14 14 13 12 14 20 24 26 26 25 25 26 26 27 28 27 26 29 29 29 28 19 14 22 28 22 18 19 20 22 23 22 22 23 23 22 20 18 19 21 21 21 20 19 19 19 17
2 5 6 5 2 4 5 5 3 5 6 6 5 6 9 9 8 9 9 8 8 8 9 9 9 9 6 3 1 0 0 0 0 1 3 5 7 9 12 15 15 15 14 13 12 15 21 25 26 27 27 28 28 28 29 28 27 27 26 26 28 26 19 18 21 21 19 19 21 23 22 22 21 22 22 21 20 20 21 22 22 21 21 21 20 21 20
1 3 2 0 4 4 3 3 2 4 6 5 5 6 9 9 8 9 9 8 8 10 10 9 10 11 8 4 1 1 2 3 4 4 3 5 7 9 12 14 15 15 15 14 14 14 17 20 24 27 28 30 31 30 28 27 26 25 24 23 26 27 25 24 23 23 21 20 21 23 23 22 21 21 22 22 22 23 24 23 23 21 21 21 22 24 23
2 1 2 4 4 6 5 2 1 4 7 6 5 5 5 7 7 8 8 6 7 9 8 7 7 9 6 3 1 3 5 5 6 5 4 6 7 8 11 12 14 15 14 14 14 14 16 19 24 29 31 30 29 27 27 27 25 24 24 24 24 23 23 24 24 23 22 22 23 25 25 25 23 23 23 23 24 24 24 24 24 23 22 22 23 24 23
2 2 2 3 4 3 2 1 1 7 13 12 8 6 2 5 8 12 9 6 6 7 6 5 5 5 3 1 2 3 5 7 7 6 5 6 7 8 9 9 11 12 11 12 12 14 18 20 22 31 31 30 28 26 26 26 24 23 23 23 24 22 21 21 21 22 23 24 25 26 27 27 26 24 24 24 25 25 25 26 26 25 24 24 23 23 22
2 3 0 2 2 2 2 1 3 11 17 13 8 7 1 5 6 13 10 7 7 7 6 5 4 2 1 0 1 1 4 7 7 6 6 6 6 7 8 8 9 10 10 13 13 14 21 15 15 32 29 27 29 27 25 26 25 24 24 23 23 22 21 21 20 20 22 25 27 28 28 28 26 25 24 23 23 23 23 24 26 24 23 24 23 22 23
2 3 2 2 1 1 3 4 8 13 14 10 7 5 2 5 3 11 10 8 7 7 6 5 2 1 1 2 3 1 2 5 5 4 4 5 5 7 7 6 7 9 10 15 16 15 19 12 14 32 30 26 27 26 25 25 24 23 24 24 21 18 18 20 20 21 22 24 27 28 27 26 25 23 21 19 20 20 19 21 24 21 20 23 24 23 23
1 2 3 3 1 1 4 6 12 11 8 6 5 2 6 5 4 8 7 6 6 6 7 5 2 3 5 6 7 5 3 0 2 1 2 4 5 5 5 4 5 7 9 12 15 13 12 9 7 21 28 29 27 27 26 24 20 17 19 21 18 15 16 19 21 23 22 22 24 24 23 22 21 20 17 14 12 9 8 10 14 13 13 16 18 18 19
1 2 3 2 1 3 3 6 14 13 4 2 2 6 9 5 7 9 6 5 6 7 7 6 5 7 8 9 9 8 7 6 5 3 1 2 2 2 2 2 2 4 6 7 10 10 7 4 1 8 17 23 24 22 21 20 16 13 13 16 15 14 17 19 19 20 19 16 16 15 13 12 10 9 8 6 5 6 6 4 7 10 9 7 6 8 10
1 2 3 2 1 3 3 5 8 8 2 4 5 8 10 7 9 10 8 6 6 7 9 8 8 9 10 9 10 10 10 9 7 5 4 3 3 4 3 4 4 4 4 5 5 5 5 5 6 7 12 17 19 18 16 14 12 10 11 14 14 15 17 17 15 15 14 11 8 8 8 8 8 9 9 10 9 9 8 8 10 12 11 9 8 9 10
1 1 1 2 5 4 3 4 4 3 5 6 4 5 9 10 10 10 9 7 6 8 9 10 9 9 10 10 11 12 10 8 6 5 4 5 6 6 6 5 5 6 8 7 7 9 13 14 14 15 18 21 22 22 22 20 18 17 18 19 18 18 18 17 15 15 14 12 11 11 11 11 11 12 13 14 14 14 12 11 12 13 13 11 9 9 10
2 2 3 5 10 11 4 8 10 7 5 4 2 4 10 11 8 7 7 6 8 10 10 10 10 10 10 11 11 9 8 6 6 7 7 7 8 8 7 6 6 7 11 13 13 14 17 19 18 18 21 26 28 29 27 25 24 24 24 23 23 22 22 22 22 21 20 19 19 18 18 17 17 18 18 18 18 18 17 16 15 16 15 12 10 11 12
1 3 4 7 7 5 6 13 12 6 5 4 4 7 9 10 6 4 4 6 8 11 11 11 11 11 12 12 10 8 8 9 9 10 11 10 10 9 9 9 10 12 16 19 18 17 18 19 19 19 22 26 29 29 28 27 28 30 30 30 30 29 29 29 28 26 25 26 25 25 24 23 23 23 22 21 20 19 18 17 16 15 13 12 12 14 15
1 2 3 7 8 8 11 14 12 10 9 8 5 5 6 7 5 2 3 6 7 9 12 14 12 11 13 13 12 11 11 12 12 12 13 11 10 10 12 14 15 17 20 21 20 20 19 19 20 22 25 28 30 32 32 32 34 35 35 35 34 32 31 30 28 26 26 26 26 25 23 23 24 23 22 21 20 19 17 16 15 14 12 12 12 13 13
4 3 3 6 13 14 13 12 12 12 10 7 5 5 4 4 4 2 2 5 7 9 14 15 13 13 15 14 15 15 15 14 14 12 11 10 10 11 14 17 17 19 22 24 22 21 21 19 20 23 25 27 29 31 33 33 34 34 34 33 31 29 27 26 24 23 22 22 21 20 20 20 21 21 20 18 18 17 16 14 13 13 12 11 10 10 11
1 1 2 5 13 13 12 12 11 9 8 6 4 3 1 3 5 4 3 4 7 10 13 14 14 16 17 15 17 19 17 16 16 13 12 13 14 17 19 21 20 22 24 25 25 24 24 24 23 23 23 24 26 28 29 28 29 29 28 27 26 25 24 23 22 22 21 19 19 19 19 20 20 20 19 17 15 15 14 13 13 13 12 12 12 11 11
1 2 3 3 7 6 7 11 9 6 7 5 2 1 3 4 6 6 6 7 9 9 11 13 15 18 18 17 19 20 19 18 18 16 17 20 21 21 22 22 23 25 27 27 27 27 26 24 22 20 20 20 22 25 25 24 25 26 25 24 24 23 22 22 21 20 20 20 20 20 20 21 21 21 20 18 17 16 16 16 16 15 14 14 14 13 12
2 1 1 5 10 9 9 11 9 6 5 4 1 2 3 4 5 7 9 12 12 12 12 14 16 18 19 20 21 21 20 19 19 19 20 22 22 21 21 22 25 27 26 25 26 26 24 21 20 19 18 17 18 20 21 20 20 21 22 23 24 24 23 23 22 22 23 23 23 23 22 22 22 22 21 20 20 19 18 17 16 15 14 14 14 13 12
7 8 8 12 14 13 11 9 6 3 3 4 2 1 2 2 5 7 11 13 14 16 17 16 16 18 19 20 21 22 21 20 20 19 20 21 22 23 23 24 25 25 23 22 23 24 23 21 20 20 21 20 19 18 19 19 20 21 23 25 26 26 25 24 23 23 23 23 23 23 22 21 21 20 20 19 19 19 18 18 16 15 15 14 14 13 13
9 12 14 15 16 15 11 8 6 5 4 4 3 2 2 3 4 7 10 13 15 18 20 20 19 18 18 20 22 22 21 21 20 20 21 22 23 24 24 23 22 22 24 24 24 23 21 19 19 19 19 19 18 18 19 21 23 25 26 26 26 25 24 23 22 21 22 22 21 21 20 20 19 19 19 18 18 18 18 17 16 16 16 16 15 15 15
11 13 14 15 15 13 10 9 9 7 4 3 2 1 2 4 5 7 10 12 14 18 21 22 21 19 18 20 23 22 22 22 21 21 23 24 24 23 23 22 22 22 23 24 23 22 20 19 20 20 19 18 18 18 18 19 21 23 23 22 22 22 21 21 21 20 20 20 19 17 16 16 16 16 16 16 16 16 15 15 15 15 16 15 14 13 13
13 14 13 12 12 11 11 11 10 6 4 5 5 4 4 5 6 8 9 10 13 18 22 23 22 21 20 20 23 23 22 22 22 23 25 25 23 22 22 22 22 21 21 22 22 23 22 21 21 20 20 19 18 17 16 15 16 19 20 19 18 18 17 17 17 16 16 16 16 16 15 14 13 13 13 13 12 12 11 11 12 12 11 11 11 11 12
13 13 12 10 12 14 14 11 8 7 7 7 6 5 5 7 8 10 12 14 16 21 24 24 24 23 21 22 24 24 23 24 25 25 24 23 22 22 21 21 21 20 22 24 24 23 23 22 20 19 18 16 15 15 15 15 16 17 16 15 15 15 15 14 13 12 12 14 15 16 15 13 12 12 12 13 13 12 12 12 13 11 9 9 10 10 11
13 11 9 11 15 18 15 12 10 9 10 10 9 8 9 12 15 16 18 19 20 22 24 24 23 21 20 22 25 26 25 25 24 23 22 22 22 22 23 23 23 23 24 25 24 23 22 21 20 19 16 14 13 13 13 15 15 14 12 11 10 11 11 11 12 13 14 14 14 13 13 11 10 10 10 10 11 12 12 12 13 13 12 11 10 10 9
13 11 12 15 18 18 16 15 15 14 13 12 12 11 13 17 20 21 21 21 21 22 23 22 21 21 21 22 24 26 26 24 23 23 24 24 23 23 24 24 24 23 23 21 20 19 19 18 18 18 16 14 12 11 11 12 13 12 10 9 8 9 11 13 13 15 16 15 13 13 11 10 9 9 10 9 8 8 9 9 10 12 13 12 11 9 9
14 15 17 19 19 18 18 19 19 16 14 13 13 13 16 19 22 23 23 22 22 23 22 22 22 23 23 22 22 23 24 24 24 24 23 22 22 22 22 22 22 22 20 19 18 15 13 13 15 16 16 14 12 11 10 10 10 9 7 6 8 11 14 13 12 12 13 12 12 11 11 10 9 8 8 8 8 8 9 9 9 11 12 11 11 12 12
17 19 19 19 19 19 20 21 20 18 16 15 14 15 16 19 22 24 23 22 21 21 20 20 22 23 23 22 21 21 22 23 24 25 24 24 23 22 20 20 20 17 15 14 13 10 9 11 14 16 15 14 12 11 10 8 8 8 7 9 12 14 14 12 10 9 10 10 10 10 10 9 8 7 7 8 10 10 11 11 11 11 11 11 11 12 10
20 22 21 21 22 23 22 21 20 19 17 16 16 16 16 19 22 23 22 21 20 19 19 21 22 22 21 21 20 19 18 18 19 21 23 23 21 19 17 16 16 14 11 10 10 10 9 10 12 14 13 12 12 12 11 9 9 11 12 13 15 14 13 11 9 8 8 9 9 9 8 6 7 9 11 12 12 11 10 10 10 10 10 9 8 8 6
21 23 24 23 23 24 24 22 21 21 19 17 17 18 18 20 21 21 20 20 20 20 21 21 21 20 20 19 18 16 16 17 18 20 21 20 18 15 13 12 13 14 13 11 10 10 9 9 10 11 11 11 13 15 14 13 12 13 14 15 15 14 13 11 9 7 7 6 6 6 7 8 10 13 13 12 11 10 10 9 9 9 8 8 6 5 3
21 23 24 23 21 21 23 23 23 22 21 20 19 20 20 20 21 21 22 23 23 23 23 22 22 21 21 20 19 18 19 21 20 18 18 17 16 14 13 12 13 13 12 10 8 7 7 8 9 10 10 11 12 15 16 15 14 13 13 12 12 11 10 9 7 5 4 4 7 9 11 11 11 12 10 8 8 9 10 10 9 8 7 7 6 4 3
21 22 23 22 20 21 23 24 23 22 20 20 21 21 21 20 22 24 26 26 25 25 25 26 26 25 23 24 23 21 21 21 19 15 16 18 17 13 11 11 11 9 7 7 7 6 6 7 7 9 11 11 9 11 14 16 14 12 10 8 7 7 8 7 6 5 6 9 12 12 11 10 9 9 8 6 6 6 6 7 7 5 3 4 3 3 4
21 22 24 23 22 23 25 24 23 20 19 19 20 22 22 23 25 28 29 27 25 25 27 27 26 24 23 23 22 20 19 18 15 15 17 18 15 12 11 11 10 8 8 10 10 10 8 7 6 9 11 11 9 11 14 15 14 13 11 8 6 6 7 7 6 6 9 12 13 11 10 10 8 7 7 6 4 3 3 5 4 3 2 3 4 5 6
21 22 24 25 25 25 24 23 22 22 21 20 22 24 26 27 29 31 32 29 27 27 27 25 24 24 23 21 20 20 19 16 14 15 17 16 13 11 11 11 10 10 11 12 12 12 10 7 7 10 11 11 12 15 17 16 14 14 13 10 7 6 6 6 6 7 9 12 11 10 10 9 7 7 8 7 5 5 5 4 3 2 2 3 5 7 8
20 20 23 26 27 27 25 24 24 26 24 22 25 29 31 30 31 33 33 30 29 28 27 24 23 23 22 20 21 22 21 17 15 16 17 16 14 13 12 10 8 8 9 11 12 12 11 8 8 11 13 13 15 17 16 14 13 14 13 12 10 7 5 4 6 9 11 11 10 9 9 8 7 8 9 7 6 6 7 5 2 0 1 3 5 7 9
20 23 26 28 29 29 28 26 26 28 27 24 26 32 34 32 32 33 32 29 27 26 26 25 23 21 20 20 21 21 18 16 16 16 16 15 15 15 14 13 10 7 8 11 12 11 10 10 10 11 13 14 15 15 14 12 13 12 10 9 10 9 8 7 8 10 11 9 8 8 8 7 7 7 7 5 5 5 6 5 3 1 3 4 5 7 8
21 25 30 32 31 31 30 27 27 29 29 26 26 31 34 34 33 33 32 29 25 24 25 25 24 23 21 21 21 19 19 18 18 17 16 16 16 14 14 14 11 7 7 11 12 11 10 10 10 10 11 12 13 14 14 14 14 13 11 9 10 11 10 10 10 10 9 8 7 8 7 5 5 6 6 5 5 5 4 4 4 2 1 3 4 5 5
21 26 31 33 32 32 30 28 28 30 31 29 28 31 35 36 35 34 31 27 24 24 26 26 24 23 23 22 21 20 20 18 17 15 13 13 12 11 11 11 8 6 8 11 12 11 10 9 10 10 11 12 13 15 14 13 13 13 12 11 10 10 9 8 7 8 8 7 7 7 7 5 4 5 5 5 4 4 4 3 2 2 1 1 2 2 2
20 24 28 31 31 31 31 30 30 32 32 31 30 32 34 35 34 32 29 25 25 28 29 28 25 25 24 23 22 21 19 16 15 14 14 12 10 9 8 7 7 8 9 11 12 12 10 9 9 10 11 12 14 14 13 11 9 9 10 10 10 9 9 7 6 7 8 7 6 7 6 4 2 4 5 4 3 3 5 5 3 2 2 1 3 3 4
21 23 25 28 30 31 32 32 32 33 33 33 32 32 34 34 32 30 27 27 30 32 31 29 27 27 25 24 22 19 16 15 14 15 15 15 13 10 8 7 8 10 11 12 13 12 10 9 10 11 12 13 15 14 13 11 9 8 9 9 9 9 9 9 8 9 9 8 8 9 7 4 3 5 5 4 4 4 3 3 4 4 3 3 5 5 6
24 24 24 26 29 32 33 33 32 32 32 33 32 32 34 34 31 29 29 31 32 32 31 30 29 27 25 23 19 15 12 12 12 12 13 13 13 11 9 8 9 11 13 14 13 11 9 9 11 13 13 15 16 15 14 12 10 10 11 10 9 8 9 9 8 9 10 10 11 11 8 6 6 6 5 4 4 3 1 1 2 3 2 3 4 4 6
25 25 25 27 29 30 31 32 32 31 31 32 32 32 33 33 31 30 32 33 32 31 30 29 28 26 24 21 18 14 12 10 8 7 7 7 7 8 9 9 11 14 16 15 12 9 10 11 13 13 14 15 16 15 13 11 10 10 10 10 8 8 8 8 8 9 9 9 10 11 10 8 7 6 5 4 3 2 2 2 2 0 3 5 5 6 8
26 26 27 30 30 28 26 28 30 31 33 34 34 33 34 33 31 32 33 32 31 30 29 28 27 25 23 21 18 16 14 13 12 11 9 7 5 7 9 11 14 17 17 15 11 10 11 13 14 14 14 15 15 14 13 12 11 10 10 10 9 9 8 7 7 7 6 5 7 10 9 8 6 6 5 5 4 3 2 3 2 1 2 3 5 6 7
27 27 27 29 31 30 27 28 30 33 34 34 34 34 34 33 32 32 32 31 30 30 30 29 27 25 23 21 18 15 12 11 11 12 12 10 9 8 9 11 15 18 17 15 12 11 12 14 14 14 14 14 14 13 12 12 12 12 12 11 10 9 9 8 7 5 4 5 8 7 5 5 6 7 6 6 6 5 4 4 3 4 4 3 1 1 2
27 26 24 24 29 32 31 31 33 35 34 33 33 33 33 32 32 32 32 32 32 32 32 31 28 26 24 21 17 15 12 10 9 8 8 8 9 10 10 12 15 17 16 14 12 12 14 15 14 13 14 15 15 13 12 10 10 11 12 12 12 11 11 10 9 6 4 6 8 8 6 6 6 7 7 7 6 5 5 4 3 4 3 1 3 4 5
26 26 24 26 31 34 33 32 35 37 36 34 34 34 33 32 33 33 33 33 34 33 32 31 29 27 25 22 18 16 14 12 10 9 7 5 6 8 10 13 16 17 16 13 12 13 15 16 15 14 15 15 15 14 13 12 11 11 12 12 12 12 11 10 11 10 7 6 8 9 8 5 3 3 5 6 5 4 5 6 5 3 1 2 1 4 7
26 26 25 27 32 35 33 31 34 38 37 35 35 35 34 34 34 34 33 34 34 32 31 31 29 27 25 23 20 18 17 15 14 12 9 6 4 6 10 14 16 17 16 14 13 13 15 15 15 15 15 16 15 14 12 12 12 12 12 11 11 10 9 8 9 10 9 8 8 9 8 5 3 3 5 5 4 3 4 4 4 3 2 3 4 6 7
24 25 24 26 31 33 29 25 29 36 37 35 35 36 35 34 34 34 33 33 33 32 31 31 30 28 25 23 22 20 19 18 17 15 12 8 6 7 11 15 17 16 15 14 14 14 15 15 15 15 15 16 15 13 11 10 10 10 9 8 8 8 5 4 6 8 8 8 10 11 9 5 3 4 7 8 8 7 6 5 5 4 4 5 6 7 8
Wind_Direction
267 283 287 290 285 269 265 216 127 94 115 150 168 194 174 148 149 204 199 188 202 213 207 218 210 178 194 28 16 349 359 2 345 355 358 337 331 325 299 274 269 257 236 226 223 219 212 210 210 211 210 205 204 207 209 210 210 208 205 203 206 211 212 213 215 215 214 212 212 216 218 218 220 216 214 218 223 230 233 226 228 233 230 230 231 225 230
307 306 297 301 311 313 306 260 188 186 187 188 212 215 179 170 184 190 183 182 188 215 180 156 94 86 80 58 34 17 27 24 356 352 0 342 331 327 320 303 283 267 250 234 225 224 221 212 210 212 210 207 206 203 200 200 202 204 205 206 207 209 212 215 218 221 220 215 211 213 216 218 221 218 214 217 218 223 227 219 225 237 234 232 236 233 237
290 280 277 283 287 279 275 269 238 199 180 185 220 228 203 185 189 188 181 171 157 360 68 86 81 83 86 78 63 43 30 15 349 352 360 346 332 332 333 320 296 272 258 245 234 230 227 220 212 211 212 212 210 207 203 199 196 195 199 205 208 211 214 218 220 223 223 216 209 212 216 217 219 219 218 219 217 219 224 217 218 231 234 233 237 238 238
247 269 282 284 285 276 270 282 15 78 107 111 301 250 135 106 88 75 75 124 170 196 118 101 95 95 92 91 98 98 305 296 334 4 5 357 352 353 346 333 317 297 277 258 243 235 231 227 218 214 215 216 214 211 210 211 209 202 198 199 202 207 212 213 212 212 214 212 210 213 218 217 218 222 223 224 224 224 225 221 216 223 230 232 235 238 238
278 289 299 308 337 341 296 282 52 53 49 44 19 21 57 74 65 76 134 203 196 165 129 111 95 84 89 106 159 194 276 289 342 16 5 5 360 347 335 333 328 310 294 275 253 240 232 228 227 225 222 217 214 213 212 214 215 213 210 205 200 200 206 207 205 203 205 208 210 216 221 221 222 225 227 228 230 228 229 232 231 231 233 233 236 241 241
297 297 324 348 5 348 269 236 114 66 53 58 50 30 36 47 49 56 83 115 93 87 99 111 117 116 135 213 296 344 310 336 80 112 337 329 331 327 321 318 313 307 305 296 266 245 234 229 231 235 230 222 216 211 213 218 219 215 213 212 211 215 216 209 208 211 217 219 220 221 223 225 226 227 229 231 233 232 233 238 241 242 242 240 240 243 242
289 311 2 17 326 263 233 215 173 125 93 66 55 40 36 51 69 70 72 82 90 94 105 125 139 146 157 171 165 127 199 258 246 200 227 263 286 304 307 305 303 305 307 303 284 256 240 235 237 240 234 224 218 212 211 216 219 214 210 212 219 226 229 219 214 216 219 224 228 227 226 227 227 227 228 229 230 233 235 238 242 246 249 248 247 247 245
19 340 15 261 269 285 256 226 201 133 106 82 75 56 38 45 77 90 91 97 106 114 122 136 144 143 144 149 165 278 290 281 280 276 272 284 291 293 298 300 301 302 300 299 297 276 247 234 234 235 228 218 212 209 210 215 215 211 210 214 222 225 225 223 222 221 222 225 229 229 228 228 227 229 231 232 232 233 235 237 240 243 245 248 250 251 248
141 160 261 263 293 319 324 328 6 98 98 97 108 92 35 13 49 87 104 104 99 110 128 149 151 144 139 128 269 290 305 316 319 319 308 307 306 298 297 298 298 299 297 296 292 274 252 237 227 221 216 209 204 202 204 210 209 204 205 211 217 219 218 219 222 223 223 225 228 229 230 229 227 229 232 234 235 236 236 236 237 238 240 243 246 248 249
121 84 341 305 309 305 284 249 103 98 97 99 105 104 55 341 42 82 99 108 114 128 145 157 158 160 165 197 260 286 320 338 345 349 333 314 311 307 303 299 300 303 302 297 284 270 275 267 226 206 200 193 191 191 191 193 195 195 198 205 211 215 215 218 224 223 220 221 223 225 228 228 225 226 230 233 236 238 238 238 239 240 240 239 239 240 242
92 86 83 287 294 270 251 289 66 84 90 90 82 82 26 306 51 88 102 119 139 158 168 166 162 165 190 45 152 289 330 336 340 345 340 329 320 317 311 300 301 307 307 307 300 284 295 296 182 174 178 175 176 182 184 185 191 196 200 206 211 212 208 210 218 219 217 219 220 222 227 228 227 227 228 230 234 236 239 242 242 240 237 236 234 228 227
109 129 194 255 229 256 313 13 55 73 84 84 70 81 228 265 92 107 123 144 163 170 167 161 143 96 108 125 140 183 301 321 328 334 335 328 316 311 309 296 296 304 305 312 317 309 309 326 135 154 167 172 176 182 183 183 187 190 194 199 201 199 197 202 210 214 218 220 218 219 225 226 226 227 228 230 233 238 247 246 237 229 227 231 228 216 211
133 158 227 247 159 272 316 29 41 41 58 70 66 137 220 236 159 137 142 154 165 157 148 149 129 114 131 147 158 171 182 168 357 352 311 306 302 301 307 296 292 311 315 313 324 331 323 327 118 148 163 171 175 181 182 180 178 175 180 187 188 187 192 201 207 207 209 212 210 212 218 221 223 225 225 226 229 242 270 252 221 201 200 212 213 201 193
225 200 244 250 78 294 299 52 38 24 31 118 151 190 202 191 148 148 149 146 148 144 148 159 151 143 149 159 167 169 157 148 147 150 183 304 320 301 303 302 288 322 336 328 333 348 347 333 66 149 168 170 169 173 178 182 186 187 190 197 200 193 190 196 201 198 199 205 203 199 200 202 201 194 184 169 128 80 56 76 125 122 120 129 132 140 147
212 224 260 253 223 305 350 55 38 19 55 171 180 184 182 153 130 137 138 138 150 158 159 158 152 155 165 175 179 171 160 157 156 151 153 146 122 118 100 73 67 54 41 25 19 40 74 110 128 146 162 162 157 155 154 158 167 170 173 183 186 179 178 185 187 182 184 190 181 157 148 149 136 122 123 118 105 97 98 108 112 108 106 103 97 103 110
149 175 264 223 211 245 354 85 135 128 127 147 160 158 149 135 126 132 136 144 163 168 166 164 164 169 177 184 183 175 167 161 147 136 147 150 133 119 111 102 84 68 65 64 76 100 112 121 131 135 134 131 128 125 124 127 134 138 141 149 153 152 154 155 147 140 139 136 129 120 121 126 121 114 114 114 112 112 114 116 117 115 115 114 111 105 98
164 207 210 197 208 221 200 118 126 123 109 119 90 98 127 137 138 137 146 163 165 162 170 175 173 177 183 182 178 172 160 145 132 131 133 125 119 117 118 121 108 85 84 93 102 110 113 117 122 123 119 116 114 115 118 123 128 130 132 135 135 132 129 125 120 117 114 112 111 109 109 111 111 110 109 109 109 109 109 109 110 112 112 109 104 100 99
310 299 203 172 178 191 128 108 110 103 91 98 65 70 110 137 148 136 150 178 174 171 178 178 174 183 188 178 167 156 141 129 119 117 118 116 119 126 123 115 111 109 107 106 103 101 104 109 114 117 116 114 114 116 119 121 121 121 121 121 120 119 117 116 116 116 115 112 109 107 107 110 112 112 112 111 107 105 104 105 106 106 104 101 100 102 102
91 355 179 148 117 98 94 93 90 82 84 97 91 70 100 136 154 148 150 174 189 192 185 179 182 190 185 172 162 151 138 130 125 120 121 125 128 127 121 114 113 117 119 115 104 94 95 103 110 114 116 117 117 118 118 118 117 117 116 115 116 117 119 119 119 119 118 116 115 114 114 114 114 113 112 111 108 106 105 105 105 102 98 95 94 93 89
179 212 218 131 107 101 96 92 88 83 84 91 95 92 104 141 177 244 234 185 199 201 187 187 192 185 174 169 163 151 141 139 139 136 133 133 127 121 118 117 118 120 120 118 110 96 92 100 107 109 112 116 116 114 114 116 118 119 118 117 118 119 118 118 116 114 114 117 119 118 117 117 116 113 110 108 105 104 101 95 91 90 88 85 81 76 73
154 249 313 77 92 94 92 93 90 84 87 89 83 86 154 187 183 203 224 197 200 203 195 193 189 175 169 168 160 152 147 146 145 140 134 126 120 118 116 115 115 115 113 111 106 96 89 92 96 98 101 106 108 107 107 109 110 112 113 113 114 114 114 113 112 111 111 112 113 112 113 114 114 112 111 108 105 103 99 92 85 82 82 83 80 73 70
18 293 302 48 94 103 92 91 90 88 91 89 81 141 155 159 164 179 192 182 183 195 197 191 181 170 164 163 158 151 147 148 147 139 129 122 118 116 114 110 108 107 106 105 104 99 94 93 93 91 88 91 97 102 103 102 103 105 107 109 110 111 112 113 114 113 112 111 110 110 110 111 111 110 108 105 101 98 95 90 87 85 84 85 83 78 75
113 184 209 97 105 109 100 96 106 117 103 88 91 173 144 148 165 180 187 185 181 179 179 180 176 166 159 159 158 150 146 149 147 139 132 127 122 117 116 116 115 112 109 105 102 101 101 101 103 102 98 95 98 100 100 101 106 110 111 109 108 108 109 109 110 111 110 109 108 107 105 103 103 103 103 101 97 93 89 88 88 87 85 83 81 79 77
98 95 97 103 107 108 108 109 111 104 96 107 122 106 109 167 181 185 190 191 182 170 166 168 168 161 157 160 160 153 150 150 147 143 140 136 129 125 125 127 126 122 119 115 111 109 109 108 108 110 109 108 107 106 106 109 112 112 109 106 104 104 104 105 106 106 106 105 103 101 99 97 96 95 94 94 93 90 86 85 83 81 78 75 72 70 68
123 111 105 111 116 116 116 113 87 58 71 119 136 128 135 170 188 194 193 190 180 168 162 159 159 160 159 160 161 158 153 151 151 150 146 140 134 131 130 129 126 122 120 119 118 117 116 112 108 105 104 106 108 109 112 115 113 110 107 105 103 102 103 103 103 102 102 100 96 92 90 89 89 86 82 81 84 87 83 77 72 71 71 69 66 65 64
143 131 119 118 124 129 129 114 94 81 78 85 76 77 160 174 184 187 187 187 180 169 160 155 156 161 162 160 161 158 151 149 152 151 145 140 136 132 130 127 123 121 119 118 116 116 115 114 110 106 104 108 113 114 114 113 112 110 106 103 103 106 107 107 107 106 104 101 94 89 86 82 78 75 73 71 74 79 78 71 68 69 69 66 64 65 64
152 150 141 131 126 130 132 124 112 103 94 89 83 88 123 159 174 176 175 174 165 159 158 156 154 155 156 158 157 153 148 148 148 145 141 139 136 133 131 129 125 123 122 118 113 112 113 115 115 113 110 112 118 121 117 113 113 114 113 112 113 114 114 115 114 111 109 109 106 103 101 94 83 78 78 74 72 76 77 69 65 66 64 58 61 71 75
154 156 156 154 144 135 131 130 125 108 92 90 92 99 123 142 147 147 150 151 151 154 157 156 151 148 149 151 150 147 145 146 145 144 143 142 139 137 137 135 132 130 127 123 121 120 120 118 116 113 111 112 116 119 119 117 118 121 124 126 126 124 124 125 122 117 116 119 119 116 113 111 107 104 101 92 88 91 88 74 69 72 66 57 66 85 87
159 160 160 160 158 151 140 129 121 111 100 96 96 104 127 137 135 134 138 142 148 153 153 152 150 149 150 150 149 148 147 145 144 146 148 146 141 139 140 140 139 136 131 128 128 129 128 125 120 114 109 110 115 118 122 124 125 126 126 123 120 120 120 118 119 121 122 122 122 121 121 120 122 126 127 115 104 102 99 85 77 79 82 84 94 98 84
155 160 159 154 156 157 145 129 122 120 117 113 110 115 130 136 133 132 135 139 143 146 149 151 152 149 147 148 150 151 152 149 144 144 147 145 141 139 140 142 142 139 135 135 136 136 137 137 130 120 114 115 121 125 129 132 134 134 131 120 111 111 110 105 111 122 124 118 115 120 127 131 131 132 134 131 119 109 103 90 75 73 82 93 96 79 53
151 154 157 153 152 151 142 133 131 131 130 129 125 126 136 140 136 135 138 140 141 142 147 151 152 148 146 148 151 153 154 150 146 146 148 148 146 144 144 147 148 144 141 143 145 146 149 150 143 132 124 124 130 135 136 137 140 143 141 133 125 124 121 116 118 126 129 124 120 122 127 131 132 133 135 133 123 108 99 94 83 72 69 69 64 54 45
154 150 151 152 150 146 142 139 139 139 139 141 138 139 147 149 144 141 142 143 143 146 149 152 153 153 151 149 151 154 154 153 154 155 151 147 147 147 148 152 154 149 141 141 147 151 154 153 149 143 137 134 136 137 139 141 139 132 130 136 136 131 127 126 127 129 131 134 134 131 129 129 129 129 126 121 116 108 100 97 92 77 62 58 63 66 63
161 158 160 160 155 150 146 145 145 144 146 150 149 147 151 154 151 148 148 148 149 152 154 153 154 155 154 152 153 153 152 153 157 155 146 139 140 144 145 150 156 155 148 151 160 161 153 147 147 149 151 153 148 142 139 141 131 115 113 126 134 130 125 127 131 131 131 134 139 139 134 122 112 107 102 98 98 99 95 94 95 88 78 78 85 80 65
180 178 176 170 163 156 152 151 150 149 149 152 153 151 151 155 157 156 153 151 150 151 153 153 153 152 153 154 155 156 158 157 150 140 133 130 133 137 138 142 151 152 152 159 170 170 161 155 156 159 164 169 165 157 149 142 133 123 122 131 136 133 128 129 132 129 123 121 126 127 117 104 99 100 96 92 96 104 108 111 112 102 86 84 91 85 56
193 190 183 175 170 166 160 157 158 157 154 152 155 157 158 160 160 158 156 152 148 145 145 146 147 146 143 140 137 140 147 146 137 128 129 136 142 143 140 139 140 139 140 153 168 169 161 160 160 160 163 170 175 171 163 155 149 141 136 139 145 148 147 146 144 140 129 107 97 98 99 100 104 106 102 101 111 116 116 123 127 112 80 69 73 68 38
197 198 191 181 174 170 165 162 162 164 161 158 159 162 165 166 162 158 155 152 148 144 140 138 138 137 133 128 127 126 125 127 132 139 148 154 159 157 146 139 136 129 137 165 175 163 151 150 150 153 158 162 167 166 163 162 157 142 125 120 125 131 138 145 145 139 125 109 101 100 103 108 116 118 114 116 128 123 106 108 121 119 84 54 40 12 349
198 200 194 184 174 170 169 167 167 168 168 167 166 166 167 167 165 160 156 152 148 144 140 136 136 136 134 132 133 131 126 126 140 157 161 163 167 167 161 158 156 152 162 175 172 161 159 160 152 151 157 159 153 146 144 143 137 125 117 117 111 101 110 121 118 113 120 120 116 117 121 121 121 120 112 107 119 117 88 84 95 93 35 349 332 324 320
197 197 193 186 179 173 170 170 174 177 175 171 168 166 165 164 163 163 161 157 149 142 141 142 142 143 143 143 145 149 150 152 158 167 172 176 179 177 173 171 166 157 158 164 163 161 167 171 155 149 152 151 143 138 135 133 131 129 128 131 126 110 108 106 89 92 118 128 127 127 128 120 106 103 100 88 75 70 69 77 93 84 26 339 321 316 317
199 195 190 186 183 179 174 173 177 181 181 174 169 168 167 165 164 165 165 163 157 152 150 151 150 149 151 154 158 162 167 171 173 177 181 182 181 178 174 172 165 150 147 156 163 166 169 167 155 148 146 144 141 142 142 142 143 142 141 140 134 121 105 89 79 86 101 108 106 107 109 102 94 99 102 97 88 83 83 89 110 148 322 326 321 317 318
205 198 189 185 184 183 180 176 177 182 185 182 174 172 172 170 168 167 166 167 169 168 167 167 168 169 171 171 171 171 172 173 176 181 181 177 176 174 171 170 170 156 140 151 163 167 166 165 159 151 148 146 147 148 146 139 134 134 137 142 143 135 124 115 108 102 101 103 109 111 106 106 116 124 123 121 124 117 103 91 82 355 298 305 312 314 316
206 200 192 188 189 188 185 180 177 181 185 184 179 177 178 177 174 172 170 171 174 177 178 180 181 181 181 182 181 177 173 173 177 181 182 180 180 179 175 175 177 164 146 156 166 169 169 168 160 152 149 150 149 149 147 141 139 140 139 138 143 147 145 138 134 130 126 126 131 129 122 128 153 164 164 162 157 150 136 109 87 77 335 299 298 300 311
203 198 192 190 191 191 188 183 179 179 182 184 182 180 180 180 180 179 180 180 179 178 179 183 184 182 182 183 180 176 175 178 180 182 184 186 190 191 187 183 177 165 161 168 170 170 171 167 155 150 152 152 150 151 154 153 154 157 157 151 148 153 159 161 160 157 156 157 157 152 149 153 169 181 192 208 223 217 201 183 135 104 86 349 311 298 320
208 202 196 193 191 189 185 182 180 180 181 182 183 183 183 183 185 188 190 189 183 177 177 180 183 182 181 180 178 178 181 181 178 176 176 178 186 191 187 177 173 174 175 176 176 174 172 163 152 151 157 159 157 158 160 160 159 163 170 170 163 158 162 170 168 162 164 171 170 164 163 173 199 196 193 204 224 218 210 211 207 183 178 266 310 326 339
215 211 204 198 192 187 183 180 179 178 179 180 182 184 185 186 191 194 192 184 179 177 178 180 182 183 183 182 183 184 183 179 179 180 179 179 184 185 172 166 177 178 173 175 181 179 171 162 158 157 159 163 164 162 161 159 152 145 152 164 168 165 166 169 167 164 166 166 158 152 150 159 184 190 184 180 185 193 206 224 222 209 216 266 290 311 335
215 213 207 199 194 190 187 184 181 180 181 182 183 184 185 187 191 192 186 179 177 179 181 182 184 185 185 185 186 184 176 173 182 189 187 187 193 190 177 174 181 178 176 182 186 178 166 166 170 166 163 165 168 168 166 164 161 157 158 163 167 168 170 173 174 175 177 174 166 156 146 143 156 160 152 159 189 211 255 296 229 232 289 313 303 310 336
214 212 205 197 193 191 190 188 185 182 181 180 178 179 182 186 187 184 181 181 181 182 183 185 187 187 186 186 184 177 167 165 174 184 187 190 192 186 181 182 180 180 185 193 190 174 168 174 175 170 166 169 174 176 172 165 163 167 170 171 171 171 171 173 178 181 183 185 180 171 164 164 170 166 149 147 166 158 111 113 153 77 26 25 16 1 353
216 215 207 198 193 189 185 183 182 179 177 176 174 175 180 184 184 182 182 184 184 183 184 187 188 188 187 186 183 177 171 167 169 179 195 204 187 170 176 183 182 184 192 197 191 179 179 179 174 170 172 176 180 180 173 162 159 161 161 162 168 174 175 180 189 193 189 179 173 174 179 186 185 171 168 180 189 176 156 175 209 275 352 19 23 13 1
216 217 212 203 197 190 185 182 180 178 177 176 176 177 179 182 182 181 181 182 183 183 184 187 187 188 189 191 189 187 186 182 179 185 200 212 209 197 193 191 189 191 196 198 193 187 184 180 175 173 176 178 179 176 170 168 171 171 165 162 167 170 169 179 198 208 183 148 147 157 179 188 171 161 172 198 212 213 207 212 247 281 293 295 289 306 323
216 216 210 199 192 189 187 184 181 179 178 177 177 177 178 179 179 179 180 181 182 182 183 186 187 188 190 194 195 193 194 199 204 202 199 202 209 211 204 196 195 198 200 199 196 190 184 180 178 177 177 177 175 170 167 170 177 177 175 177 180 178 173 177 188 196 178 154 155 166 183 187 177 177 192 208 216 216 211 218 262 307 333 91 175 223 265
216 213 205 195 190 189 189 186 182 180 179 178 177 177 176 176 177 179 181 182 182 182 184 187 189 190 192 196 198 196 194 199 210 215 205 195 203 206 197 191 194 198 199 199 196 191 185 182 180 177 176 176 174 171 172 178 181 180 184 193 199 200 201 203 205 207 202 180 168 173 184 198 212 211 209 218 239 247 228 225 245 284 18 103 183 269 291
213 212 209 200 193 191 192 189 185 182 181 179 178 178 178 177 178 181 182 183 183 183 184 185 188 192 195 196 197 197 196 199 206 216 220 221 214 197 187 187 193 198 199 197 196 193 190 187 183 179 178 179 178 179 185 194 197 197 201 210 213 212 210 207 204 205 205 195 179 178 189 213 244 229 200 200 213 208 192 206 246 275 270 251 269 292 307
208 206 203 195 189 190 193 188 179 177 179 180 180 180 180 179 180 182 183 184 186 187 187 187 189 194 197 198 199 199 199 202 210 220 226 229 224 203 189 190 196 201 201 197 193 192 192 191 188 184 182 181 181 183 192 202 207 207 209 213 216 218 211 182 180 194 203 197 182 177 180 193 209 201 197 202 209 211 214 234 261 273 267 266 273 283 296